Powrót do katalogu

NIMBUS 2 DEB

AktywnySSO
NORAD 42436·DEBRIS·🇺🇸 United States

Wystrzelony May 15, 1966 z Vandenberg Space Force Base

Loading…

Następne Przeloty (najbliższe 24 godziny)

TLE

ŚwieżeSource: Space-Track

Epoka: Sep 12, 2026, 01:08 UTC

1 42436U 66040BP  26255.04768544  .00001384  00000-0  23558-2 0  9994
2 42436 100.2946 107.0088 0051356 331.2650  28.5653 13.46580874551621

Śledź NIMBUS 2 DEB w czasie rzeczywistym z AllMySat

Download on the App Store